World > North America > United States > Mississippi > Amory  

Amory, MS Hourly Weather Updates

Feedback E-mail the Weather

Quick Clicks

Amory, MS Weather Maps

°F °C°F °C
Amory Weather Map
UTC Time: 6/17/2024, 06:58
Your Time:

Amory, MS Regional Weather

Expires:202406170700;;156794
ASUS44 KJAN 170610
RWRMS 

MISSISSIPPI HOURLY WEATHER ROUNDUP
NATIONAL WEATHER SERVICE JACKSON MS
100 AM CDT MON JUN 17 2024

NOTE: "FAIR: INDICATES FEW OR NO CLOUDS BELOW 12,000 FEET WITH NO
SIGNIFICANT WEATHER AND/OR OBSTRUCTIONS TO VISIBILITY.


MSZ003>006-009-014>017-022>024-029>033-037>039-170700-
NORTHEAST MISSISSIPPI
  
CITY           SKY/WX    TMP DP  RH WIND       PRES   REMARKS
ABERDEEN       MOCLDY    79  75  89 SE3       30.02R                  
COLUMBUS AFB   CLOUDY    79  73  81 SE8       29.97S                  
6HR MIN TEMP:  79; 6HR MAX TEMP:  91;                                

CORINTH        PTCLDY    79  73  83 CALM      30.00S                  
GOLDN TRIANGLE CLOUDY    78  73  84 S9        30.01S                  
IUKA           PTCLDY    76  75  96 CALM      30.02S                  
LOUISVILLE     MOCLDY    75  73  94 S8        30.05R                  
STARKVILLE     MOCLDY    77  75  94 S9        29.99S                  
TUPELO         MOCLDY    80  73  79 S6        30.00S                  
6HR MIN TEMP:  78; 6HR MAX TEMP:  91;                                

$$


SKY/WX - Weather  TMP - Temperature  DP - Dew Point  RH - Humidity
WIND - Wind Direction/Speed PRES - Barometric Pressure VSB - Visibility
WCI - Wind Chill Index E13G22 Wind - East Wind 13 mph/Gusts of 22 mph

Trending Headlines

Trending Entertainment Headlines

Amory Radar Loop

Use the map search tool if you want to place a location marker on the radar map...

Amory Quick Facts

National Two Day Weather Forecast


E-mail the Amory Weather Forecast

Voice your opinion or tell us about page issues...